FW2602 Weather Reports


Display with metric or nautical units.
time (UTC)temp
F
wind
direction
speed
MPH
gust
MPH
rain 1hr
in
rain 24hr
in
rain mn
in
humidity
%
barometer
mb
20260510044539 50 75 0.0 3.0 0.00 0.30 0.00 90 1008.9
20260510044039 49 71 0.0 3.0 0.00 0.30 0.00 89 1008.8
20260510043536 50 317 0.0 2.0 0.00 0.30 0.00 89 1008.9
20260510043045 50 49 0.0 4.0 0.00 0.30 0.00 89 1008.9
20260510042535 50 84 0.0 4.0 0.00 0.30 0.00 89 1008.9
20260510042034 50 183 0.0 4.0 0.00 0.30 0.00 89 1009.0
20260510041534 50 27 0.0 3.0 0.00 0.30 0.00 88 1009.0
20260510041033 50 89 0.0 3.0 0.00 0.30 0.00 88 1009.0
20260510040532 50 74 0.0 3.0 0.00 0.30 0.00 88 1009.0
20260510040032 51 307 0.0 4.0 0.00 0.30 0.00 87 1009.1
20260510035531 51 232 0.0 4.0 0.00 0.30 0.30 87 1009.0
20260510035034 51 309 1.0 5.0 0.00 0.30 0.30 87 1009.0
20260510034530 51 347 0.0 7.0 0.00 0.30 0.30 86 1009.0
20260510034029 51 314 1.0 7.0 0.00 0.30 0.30 86 1008.8
20260510033528 51 321 1.0 8.0 0.00 0.30 0.30 86 1008.7
20260510033029 51 304 1.0 7.0 0.00 0.30 0.30 86 1008.6
20260510032528 51 138 3.0 7.0 0.00 0.30 0.30 86 1008.5
20260510032028 51 331 3.0 7.0 0.00 0.30 0.30 87 1008.7
20260510031545 51 302 2.0 7.0 0.00 0.30 0.30 87 1008.7
20260510031031 51 39 2.0 7.0 0.00 0.30 0.30 87 1008.7
20260510030531 51 333 2.0 6.0 0.00 0.30 0.30 88 1008.7
20260510030028 51 30 1.0 6.0 0.00 0.30 0.30 88 1008.7
20260510025528 51 188 1.0 4.0 0.00 0.30 0.30 88 1008.7
20260510025030 50 58 1.0 5.0 0.00 0.30 0.30 89 1008.6
20260510024530 50 89 1.0 7.0 0.00 0.30 0.30 89 1008.5
20260510024026 50 33 1.0 7.0 0.00 0.30 0.30 89 1008.6
20260510023527 50 307 1.0 4.0 0.00 0.30 0.30 89 1008.7
20260510023041 50 263 1.0 5.0 0.00 0.30 0.30 90 1008.8
20260510022526 50 71 0.0 4.0 0.00 0.30 0.30 90 1009.0
20260510022026 50 61 0.0 5.0 0.00 0.30 0.30 90 1009.0
20260510021526 50 77 1.0 5.0 0.00 0.30 0.30 89 1008.9
20260510021025 50 60 1.0 4.0 0.00 0.30 0.30 89 1008.8
20260510020525 51 99 1.0 4.0 0.00 0.30 0.30 88 1008.7
20260510020025 51 68 0.0 4.0 0.00 0.30 0.30 87 1008.8
20260510015526 51 87 1.0 5.0 0.00 0.30 0.30 87 1008.8
20260510015025 51 62 1.0 3.0 0.00 0.30 0.30 87 1008.8
20260510014526 52 80 0.0 3.0 0.00 0.30 0.30 87 1008.8
20260510014025 52 75 0.0 4.0 0.00 0.30 0.30 87 1008.9
20260510013525 52 76 0.0 2.0 0.00 0.30 0.30 87 1008.7
20260510013024 52 51 0.0 1.0 0.00 0.30 0.30 87 1008.8
20260510012527 51 48 0.0 3.0 0.00 0.30 0.30 87 1008.9
20260510012024 52 79 0.0 3.0 0.00 0.30 0.30 87 1008.9
20260510011526 52 360 0.0 3.0 0.00 0.30 0.30 87 1008.8
20260510011027 52 335 0.0 5.0 0.00 0.30 0.30 87 1008.9
20260510010520 52 20 0.0 5.0 0.00 0.30 0.30 87 1008.7
20260510010026 52 337 0.0 5.0 0.00 0.30 0.30 87 1008.8
20260510005511 51 53 1.0 5.0 0.00 0.30 0.30 88 1008.7
20260510005015 51 250 1.0 4.0 0.00 0.30 0.30 89 1008.8
20260510004525 51 259 0.0 3.0 0.00 0.30 0.30 89 1008.8
20260510004011 51 81 0.0 6.0 0.00 0.30 0.30 90 1008.8
20260510003516 51 41 0.0 6.0 0.00 0.30 0.30 90 1008.6
20260510003017 51 84 0.0 2.0 0.00 0.30 0.30 90 1008.5
20260510002524 51 115 0.0 4.0 0.00 0.30 0.30 90 1008.4
20260510002011 51 78 0.0 1.0 0.00 0.30 0.30 90 1008.3
20260510001518 51 86 0.0 2.0 0.00 0.30 0.30 90 1008.4
20260510001020 51 99 0.0 2.0 0.00 0.30 0.30 90 1008.4
20260510000509 51 99 0.0 1.0 0.00 0.30 0.30 89 1008.5
20260510000015 51 290 0.0 2.0 0.00 0.30 0.30 89 1008.4
20260509235525 51 291 0.0 2.0 0.00 0.30 0.30 89 1008.5
20260509235009 52 306 0.0 1.0 0.00 0.30 0.30 88 1008.5
20260509234520 52 307 0.0 1.0 0.00 0.30 0.30 88 1008.2
20260509234024 52 307 0.0 1.0 0.00 0.30 0.30 87 1008.1
20260509233510 52 307 0.0 1.0 0.00 0.30 0.30 87 1008.0
20260509233015 52 124 0.0 1.0 0.00 0.30 0.30 87 1007.8
20260509232523 52 264 0.0 1.0 0.00 0.30 0.30 87 1007.9
20260509232007 53 264 0.0 2.0 0.00 0.30 0.30 86 1007.8
20260509231517 53 264 0.0 6.0 0.00 0.30 0.30 85 1007.8
20260509231021 53 266 0.0 6.0 0.00 0.30 0.30 85 1007.9
20260509230511 53 297 0.0 4.0 0.00 0.30 0.30 86 1007.9
20260509230018 53 291 1.0 4.0 0.00 0.30 0.30 85 1007.9
20260509225510 53 276 0.0 8.0 0.00 0.30 0.30 85 1007.7
20260509225015 53 278 3.0 8.0 0.00 0.30 0.30 85 1007.7
20260509224526 53 290 2.0 6.0 0.00 0.30 0.30 86 1007.7
20260509224010 53 301 3.0 6.0 0.00 0.30 0.30 85 1007.7
20260509223517 53 312 0.0 5.0 0.00 0.30 0.30 85 1007.7
20260509223025 53 295 2.0 6.0 0.00 0.30 0.30 85 1007.7
20260509222510 53 295 2.0 8.0 0.00 0.30 0.30 85 1007.8
20260509222015 53 295 0.0 8.0 0.00 0.30 0.30 85 1007.7
20260509221509 53 297 2.0 7.0 0.00 0.30 0.30 85 1007.8
20260509221013 53 298 2.0 5.0 0.00 0.30 0.30 85 1007.9
20260509220524 53 276 2.0 5.0 0.00 0.30 0.30 85 1007.9
20260509220010 53 276 0.0 5.0 0.00 0.30 0.30 85 1008.0
20260509215521 53 281 1.0 11.0 0.00 0.30 0.30 84 1008.0
20260509215024 53 258 5.0 11.0 0.00 0.30 0.30 84 1008.0
20260509214515 53 302 4.0 10.0 0.00 0.30 0.30 85 1008.2
20260509214021 53 285 4.0 7.0 0.00 0.30 0.30 86 1008.1
20260509213510 53 316 1.0 7.0 0.00 0.30 0.30 86 1008.1
20260509213017 53 224 1.0 7.0 0.00 0.30 0.30 86 1008.1
20260509212527 53 173 2.0 9.0 0.00 0.30 0.30 87 1008.2
20260509212015 52 283 5.0 9.0 0.00 0.30 0.30 88 1008.1
20260509211547 52 296 0.0 5.0 0.00 0.30 0.30 89 1008.1
20260509211009 52 278 1.0 5.0 0.00 0.30 0.30 89 1008.3
20260509210519 52 312 0.0 5.0 0.00 0.30 0.30 90 1008.2
20260509210005 52 294 1.0 4.0 0.00 0.30 0.30 90 1008.2
20260509205515 51 300 1.0 4.0 0.00 0.30 0.30 90 1008.3
20260509205021 51 295 1.0 4.0 0.00 0.30 0.30 91 1008.3
20260509204510 51 250 2.0 4.0 0.00 0.30 0.30 92 1008.3
20260509204015 51 158 0.0 6.0 0.00 0.30 0.30 92 1008.3
20260509203526 51 253 0.0 6.0 0.00 0.30 0.30 93 1008.3
20260509203022 50 298 1.0 6.0 0.00 0.30 0.30 93 1008.3
20260509202519 50 287 1.0 6.0 0.00 0.30 0.30 93 1008.5
20260509202004 50 328 0.0 3.0 0.00 0.30 0.30 93 1008.5
20260509201520 50 342 0.0 3.0 0.00 0.30 0.30 93 1008.5
20260509201021 50 30 0.0 5.0 0.00 0.30 0.30 93 1008.6
20260509200530 50 269 1.0 5.0 0.00 0.30 0.30 93 1008.5
20260509200013 50 335 0.0 3.0 0.00 0.30 0.30 93 1008.6
20260509195521 50 328 0.0 5.0 0.00 0.30 0.30 94 1008.6
20260509195020 50 71 0.0 5.0 0.00 0.30 0.30 94 1008.8
20260509194510 50 65 1.0 5.0 0.00 0.30 0.30 94 1008.8
20260509194016 50 51 0.0 4.0 0.00 0.30 0.30 94 1008.8
20260509193507 50 314 1.0 3.0 0.00 0.30 0.30 94 1008.9
20260509193012 50 315 0.0 4.0 0.01 0.30 0.30 94 1008.9
20260509192520 49 117 1.0 4.0 0.01 0.30 0.30 94 1008.9
20260509192009 49 6 0.0 4.0 0.01 0.30 0.30 94 1009.1
20260509191520 49 73 1.0 4.0 0.01 0.30 0.30 94 1009.1
20260509191027 49 1 0.0 5.0 0.01 0.30 0.30 94 1009.1
20260509190512 49 24 1.0 6.0 0.01 0.30 0.30 94 1009.1
20260509190023 49 136 1.0 6.0 0.01 0.30 0.30 94 1009.2
20260509185526 49 114 1.0 5.0 0.01 0.30 0.30 94 1009.3
20260509185013 49 59 1.0 5.0 0.01 0.30 0.30 94 1009.3
20260509184521 49 316 1.0 5.0 0.01 0.30 0.30 94 1009.4
20260509184006 49 23 1.0 5.0 0.01 0.30 0.30 94 1009.4
20260509183515 49 53 1.0 6.0 0.01 0.30 0.30 94 1009.4
20260509183023 49 262 1.0 6.0 0.00 0.28 0.28 94 1009.4
20260509182511 49 198 0.0 5.0 0.00 0.28 0.28 94 1009.3
20260509182021 49 64 1.0 5.0 0.00 0.28 0.28 94 1009.3
20260509181508 49 228 0.0 6.0 0.01 0.28 0.28 94 1009.3
20260509181014 49 94 1.0 6.0 0.01 0.28 0.28 94 1009.2
20260509180522 49 114 2.0 5.0 0.02 0.28 0.28 94 1009.3
20260509180009 49 86 0.0 7.0 0.02 0.28 0.28 94 1009.4
20260509175519 49 82 3.0 8.0 0.02 0.32 0.28 94 1009.4
20260509175019 49 82 1.0 5.0 0.03 0.32 0.28 94 1009.5
20260509174509 49 70 1.0 4.0 0.04 0.32 0.28 94 1009.5
20260509174014 49 46 1.0 7.0 0.04 0.32 0.28 95 1009.5
20260509173525 49 40 2.0 7.0 0.04 0.32 0.28 95 1009.4
20260509173033 49 172 1.0 7.0 0.05 0.32 0.28 95 1009.4
20260509172529 49 70 1.0 5.0 0.06 0.32 0.28 95 1009.4
20260509172019 49 64 0.0 6.0 0.06 0.32 0.28 95 1009.6
20260509171528 49 55 1.0 6.0 0.05 0.31 0.28 95 1009.5
20260509171010 49 141 1.0 5.0 0.06 0.31 0.28 95 1009.6
20260509170517 49 250 1.0 7.0 0.05 0.30 0.27 96 1009.7
20260509170006 48 70 1.0 7.0 0.06 0.30 0.27 96 1009.7
20260509165520 48 295 1.0 7.0 0.05 0.30 0.26 96 1009.9
20260509165019 48 4 0.0 7.0 0.05 0.30 0.26 96 1009.9
20260509164529 48 325 1.0 4.0 0.05 0.28 0.25 96 1009.9
20260509164015 48 51 1.0 5.0 0.05 0.28 0.25 96 1009.9
20260509163524 48 60 1.0 6.0 0.05 0.28 0.25 96 1009.9
20260509163014 47 30 1.0 7.0 0.05 0.28 0.24 96 1010.1
20260509162513 47 29 1.0 6.0 0.04 0.27 0.23 96 1010.1
20260509162013 47 259 1.0 6.0 0.05 0.27 0.23 96 1010.2
20260509161520 47 249 0.0 4.0 0.05 0.27 0.23 96 1010.3
20260509161028 47 73 0.0 4.0 0.04 0.26 0.22 96 1010.3
20260509160510 47 354 0.0 5.0 0.05 0.26 0.22 96 1010.4
20260509160017 47 222 1.0 5.0 0.04 0.25 0.21 96 1010.4
20260509155526 47 20 0.0 4.0 0.05 0.25 0.21 96 1010.6
20260509155014 47 26 0.0 3.0 0.05 0.25 0.21 96 1010.6
20260509154516 46 307 0.0 7.0 0.05 0.24 0.20 96 1010.7
20260509154021 46 75 1.0 7.0 0.05 0.24 0.20 96 1010.7
20260509153510 46 69 0.0 6.0 0.04 0.23 0.19 96 1010.8
20260509153020 46 89 1.0 7.0 0.05 0.23 0.19 96 1010.8
20260509152525 46 211 1.0 7.0 0.05 0.23 0.19 96 1010.9
20260509152014 46 63 0.0 3.0 0.04 0.22 0.18 96 1011.0
20260509151519 46 49 0.0 3.0 0.05 0.22 0.18 96 1011.1
20260509151022 45 21 0.0 3.0 0.05 0.22 0.18 96 1011.3
20260509150529 45 309 1.0 3.0 0.04 0.21 0.17 96 1011.2
20260509150012 44 290 0.0 3.0 0.04 0.21 0.17 96 1011.3
20260509145517 44 262 1.0 5.0 0.03 0.20 0.16 96 1011.4
20260509145022 44 280 3.0 5.0 0.03 0.20 0.16 96 1011.3
20260509144524 44 291 0.0 2.0 0.03 0.19 0.15 96 1011.3
20260509144010 44 290 0.0 3.0 0.03 0.19 0.15 96 1011.3
20260509143520 44 287 0.0 3.0 0.02 0.18 0.14 96 1011.2
20260509143025 44 293 0.0 2.0 0.02 0.18 0.14 96 1011.3
20260509142509 44 288 1.0 3.0 0.02 0.18 0.14 96 1011.3
20260509142013 44 300 1.0 3.0 0.03 0.18 0.14 96 1011.3
20260509141526 43 287 0.0 3.0 0.02 0.17 0.13 95 1011.3
20260509141013 43 295 1.0 3.0 0.02 0.17 0.13 95 1011.2
20260509140517 43 290 1.0 2.0 0.03 0.17 0.13 95 1011.1
20260509140022 43 298 0.0 3.0 0.03 0.17 0.13 95 1011.1
20260509135509 43 281 1.0 3.0 0.04 0.17 0.13 95 1011.2
20260509135017 43 292 0.0 2.0 0.04 0.17 0.13 95 1011.1
20260509134506 43 303 0.0 1.0 0.04 0.16 0.12 95 1011.2
20260509134013 43 303 0.0 1.0 0.05 0.16 0.12 95 1011.2
20260509133525 42 301 0.0 0.0 0.05 0.16 0.12 95 1011.3
20260509133010 42 301 0.0 2.0 0.06 0.16 0.12 95 1011.3
20260509132524 42 301 0.0 4.0 0.06 0.16 0.12 95 1011.4
20260509132004 42 300 0.0 4.0 0.06 0.15 0.11 95 1011.3
20260509131522 42 295 1.0 4.0 0.06 0.15 0.11 95 1011.4
20260509131019 42 297 0.0 0.0 0.06 0.15 0.11 94 1011.4
20260509130523 42 297 0.0 2.0 0.05 0.14 0.10 94 1011.4
20260509130016 42 297 0.0 2.0 0.05 0.14 0.10 94 1011.5
20260509125516 42 351 0.0 1.0 0.05 0.13 0.09 94 1011.4
20260509125017 42 352 0.0 1.0 0.05 0.13 0.09 94 1011.5
20260509124525 42 355 0.0 0.0 0.04 0.12 0.08 94 1011.4
20260509124010 42 301 0.0 2.0 0.03 0.11 0.07 93 1011.5
20260509123521 42 300 0.0 2.0 0.04 0.11 0.07 94 1011.5
20260509123026 42 98 0.0 2.0 0.03 0.10 0.06 93 1011.6
20260509122514 42 79 1.0 2.0 0.03 0.10 0.06 94 1011.5
20260509121529 42 340 0.0 1.0 0.02 0.09 0.05 93 1011.5
20260509121027 41 301 0.0 3.0 0.02 0.09 0.05 93 1011.5
20260509120528 42 304 1.0 3.0 0.02 0.09 0.05 93 1011.5
20260509120025 41 94 0.0 2.0 0.02 0.09 0.05 93 1011.5
20260509115526 41 66 0.0 1.0 0.01 0.08 0.04 93 1011.6
20260509115025 41 32 0.0 1.0 0.01 0.08 0.04 93 1011.5
20260509114525 41 32 0.0 1.0 0.01 0.08 0.04 93 1011.5
20260509114027 41 86 0.0 1.0 0.01 0.08 0.04 93 1011.6
20260509113525 41 86 0.0 2.0 0.00 0.07 0.03 93 1011.5
20260509113025 41 342 0.0 2.0 0.00 0.07 0.03 93 1011.5
20260509112523 41 79 0.0 2.0 0.01 0.07 0.03 93 1011.5
20260509112023 40 78 0.0 2.0 0.01 0.07 0.03 92 1011.6
20260509111523 40 78 0.0 2.0 0.01 0.07 0.03 92 1011.6
20260509111022 40 245 0.0 1.0 0.01 0.07 0.03 92 1011.6
20260509110524 40 245 0.0 2.0 0.01 0.07 0.03 92 1011.6
20260509110022 40 245 0.0 2.0 0.01 0.07 0.03 92 1011.4
20260509105524 40 101 0.0 2.0 0.01 0.07 0.03 92 1011.4
20260509105021 40 5 0.0 2.0 0.01 0.07 0.03 92 1011.4
20260509104522 40 13 0.0 2.0 0.01 0.07 0.03 92 1011.4
20260509104021 40 143 0.0 5.0 0.01 0.07 0.03 92 1011.3
20260509103521 40 317 1.0 5.0 0.01 0.07 0.03 92 1011.3
20260509103021 40 96 0.0 4.0 0.02 0.07 0.03 92 1011.2
20260509102521 40 309 0.0 4.0 0.01 0.06 0.02 92 1011.3
20260509102019 40 301 1.0 4.0 0.01 0.06 0.02 92 1011.2
20260509101518 41 111 0.0 1.0 0.01 0.06 0.02 92 1011.2
20260509101017 40 112 0.0 1.0 0.01 0.06 0.02 92 1011.4
20260509100516 40 111 0.0 1.0 0.01 0.06 0.02 91 1011.6
20260509100017 40 111 0.0 1.0 0.01 0.06 0.02 91 1011.6
20260509095516 40 111 0.0 1.0 0.02 0.06 0.02 91 1011.8
20260509095015 40 95 0.0 0.0 0.02 0.06 0.02 90 1011.8
20260509094515 40 94 0.0 0.0 0.02 0.06 0.02 90 1011.8
20260509094015 40 95 0.0 0.0 0.02 0.06 0.02 90 1011.8
20260509093517 40 95 0.0 0.0 0.02 0.06 0.02 89 1011.8
20260509093015 40 94 0.0 1.0 0.01 0.05 0.01 89 1011.8
20260509092514 40 29 0.0 4.0 0.01 0.05 0.01 88 1011.7
20260509092012 40 82 0.0 5.0 0.01 0.05 0.01 88 1011.6
20260509091520 40 312 0.0 2.0 0.01 0.05 0.01 87 1011.7
20260509091011 40 1 0.0 4.0 0.01 0.05 0.01 86 1011.8
20260509090511 41 326 0.0 3.0 0.01 0.05 0.01 85 1011.8
20260509090009 41 253 0.0 5.0 0.01 0.05 0.01 84 1011.9
20260509085508 41 20 1.0 5.0 0.00 0.04 0.00 83 1011.8
20260509085007 41 58 1.0 5.0 0.00 0.04 0.00 81 1011.8
20260509084516 42 72 1.0 6.0 0.00 0.04 0.00 79 1011.9
20260509084005 42 68 0.0 5.0 0.00 0.04 0.00 76 1011.9
20260509083504 43 71 0.0 5.0 0.00 0.04 0.00 73 1012.0
20260509083003 43 60 1.0 4.0 0.00 0.04 0.00 70 1012.1
20260509082503 44 72 1.0 6.0 0.00 0.04 0.00 68 1012.1
20260509082002 44 116 0.0 7.0 0.00 0.04 0.00 66 1012.1
20260509081502 44 72 2.0 7.0 0.00 0.04 0.00 65 1012.1
20260509081002 44 75 3.0 8.0 0.00 0.04 0.00 65 1012.1
20260509080501 45 78 2.0 12.0 0.00 0.04 0.00 64 1012.0
20260509080001 45 46 6.0 12.0 0.00 0.04 0.00 64 1011.9
20260509075600 45 42 3.0 9.0 0.00 0.04 0.00 65 1011.9
20260509075100 44 68 3.0 9.0 0.00 0.04 0.00 65 1011.8
20260509074600 44 65 3.0 9.0 0.00 0.04 0.00 65 1011.8
20260509074059 44 91 2.0 10.0 0.00 0.04 0.00 65 1011.8
20260509073558 44 79 3.0 10.0 0.00 0.04 0.00 65 1012.0
20260509073206 44 86 3.0 10.0 0.00 0.04 0.00 67 1012.0
20260509072556 43 84 1.0 4.0 0.00 0.04 0.00 67 1011.9
20260509072055 43 82 0.0 5.0 0.00 0.04 0.00 68 1011.9
20260509071555 43 152 0.0 5.0 0.00 0.04 0.00 68 1011.9
20260509071054 43 287 0.0 2.0 0.00 0.04 0.00 68 1012.0
20260509070554 43 36 0.0 3.0 0.00 0.04 0.00 67 1012.0
20260509070054 43 91 1.0 3.0 0.00 0.04 0.00 66 1012.0
20260509065552 42 98 0.0 3.0 0.00 0.04 0.00 67 1012.0
20260509065052 43 44 0.0 3.0 0.00 0.04 0.00 66 1012.1
20260509064552 43 82 0.0 5.0 0.00 0.04 0.00 65 1012.0
20260509064051 43 82 1.0 6.0 0.00 0.04 0.00 64 1012.0
20260509063551 42 84 3.0 6.0 0.00 0.04 0.00 65 1012.0
20260509063050 41 80 2.0 4.0 0.00 0.04 0.00 68 1012.1
20260509062549 41 95 0.0 1.0 0.00 0.04 0.00 70 1012.2
20260509062047 41 94 1.0 1.0 0.00 0.04 0.00 71 1012.2
20260509061554 40 94 0.0 1.0 0.00 0.04 0.00 70 1012.3
20260509061046 40 94 0.0 1.0 0.00 0.04 0.00 71 1012.4
20260509060545 40 94 0.0 1.0 0.00 0.04 0.00 73 1012.3
20260509060045 40 94 0.0 2.0 0.00 0.04 0.00 72 1012.4
20260509055544 40 95 1.0 2.0 0.00 0.04 0.00 72 1012.4
20260509055044 40 95 1.0 2.0 0.00 0.04 0.00 72 1012.5
20260509054546 40 95 1.0 1.0 0.00 0.04 0.00 73 1012.5
20260509054043 40 94 0.0 1.0 0.00 0.04 0.00 71 1012.6
20260509053543 40 96 0.0 1.0 0.00 0.04 0.00 72 1012.8
20260509053046 41 96 0.0 1.0 0.00 0.04 0.00 70 1012.8
20260509052543 41 96 0.0 1.0 0.00 0.04 0.00 71 1012.8
20260509052038 41 83 0.0 1.0 0.00 0.04 0.00 70 1012.8
20260509051540 41 84 0.0 1.0 0.00 0.04 0.00 70 1012.8
20260509051038 41 84 0.0 2.0 0.00 0.04 0.00 68 1012.8
20260509050537 41 84 0.0 2.0 0.00 0.04 0.00 70 1012.6
20260509050039 41 94 1.0 2.0 0.00 0.04 0.00 71 1012.7
20260509045535 41 91 1.0 1.0 0.00 0.04 0.00 72 1013.0
20260509045039 41 88 0.0 1.0 0.00 0.04 0.00 72 1012.9